Stefansson Isl, Nunavut

4:56 AM MST on February 25, 2017 (GMT -0700)
Stefansson Island

Weather History for CXSE - April, 2013

Change the Weather History Date:

Friday, April 26, 2013

  Actual Average Record
Temperature  
Mean Temperature -8 °F -  
Max Temperature -2 °F - - ()
Min Temperature -15 °F - - ()
Degree Days  
Heating Degree Days 74    
Moisture  
Dew Point -13 °F    
Average Humidity 78    
Maximum Humidity 83    
Minimum Humidity 64    
Precipitation  
Precipitation 0.00 in - - ()
Sea Level Pressure  
Sea Level Pressure 29.73 in    
Wind  
Wind Speed 8 mph ()    
Max Wind Speed 13 mph    
Max Gust Speed -    
T = Trace of Precipitation, MM = Missing Value Source: Averaged Metar Reports

Daily Weather History Graph

Daily Weather History Graph

Search for Another Location

Airport or City:

Trip Planner

Search our weather history database for the weather conditions in past years. The results will help you decide how hot, cold, wet, or windy it might be!

Date:

Astronomy

Apr. 26, 2013 Rise Set
Actual Time 2:49 AM MDT 11:16 PM MDT
Civil Twilight Sun does not rise Sun does not rise
Nautical Twilight Sun does not rise Sun does not rise
Astronomical Twilight Sun does not rise Sun does not rise
Moon No Moon Rise No Moon Set
Length of Visible Light 24h 00m
Length of Day
20h 27m
Full, 99% of the Moon is Illuminated
Apr 26
Full
May 2
Last Quarter
May 9
New
May 17
First Quarter
May 24
Full

Hourly Weather History & Observations

Time (MDT) Temp. Windchill Dew Point Humidity Pressure Visibility Wind Dir Wind Speed Gust Speed Precip Events Conditions
12:00 AM -12 °F - -16 °F 70% 29.76 in - ESE 9.2 mph - -  
12:00 AM -11.9 °F -29.9 °F -16.4 °F 80% 29.76 in - ESE 9.2 mph - N/A   Unknown
1:00 AM -11.7 °F -29.7 °F -16.2 °F 80% 29.75 in - ESE 9.2 mph - N/A   Unknown
2:00 AM -13.4 °F -30.4 °F -18.0 °F 80% 29.74 in - ESE 8.1 mph - N/A   Unknown
3:00 AM -12.8 °F -28.4 °F -17.3 °F 80% 29.74 in - East 6.9 mph - N/A   Unknown
4:00 AM -12.8 °F -28.4 °F -17.3 °F 80% 29.73 in - East 6.9 mph - N/A   Unknown
5:00 AM -13.5 °F -30.7 °F -18.4 °F 79% 29.73 in - ESE 8.1 mph - N/A   Unknown
6:00 AM -15 °F - -20 °F 64% 29.72 in - ESE 8.1 mph - -  
6:00 AM -15.3 °F -32.9 °F -20.4 °F 78% 29.72 in - ESE 8.1 mph - N/A   Unknown
8:00 AM -11.0 °F -27.6 °F -16.4 °F 77% 29.71 in - ESE 8.1 mph - N/A   Unknown
9:00 AM -9.8 °F -26.1 °F -15.5 °F 76% 29.71 in - East 8.1 mph - N/A   Unknown
11:00 AM -7.1 °F - -12.5 °F 77% - - North - - N/A   Unknown
1:00 PM -4.2 °F -21.4 °F -9.8 °F 77% 29.71 in - East 10.4 mph - N/A   Unknown
2:00 PM -3.6 °F - -9.0 °F 78% - - North - - N/A   Unknown
3:00 PM -2.7 °F -19.6 °F -8.5 °F 76% 29.71 in - East 10.4 mph - N/A   Unknown
4:00 PM -2.4 °F -20.1 °F -7.6 °F 78% 29.72 in - East 11.5 mph - N/A   Unknown
5:00 PM -2.2 °F -20.7 °F -7.2 °F 79% 29.73 in - East 12.7 mph - N/A   Unknown
6:00 PM -3 °F - -8 °F 70% 29.73 in - East 8.1 mph - -  
6:00 PM -2.7 °F -17.5 °F -7.8 °F 79% 29.73 in - East 8.1 mph - N/A   Unknown
8:00 PM -4.2 °F -19.3 °F -8.3 °F 82% 29.74 in - East 8.1 mph - N/A   Unknown
9:00 PM -3.8 °F -18.8 °F -7.8 °F 83% 29.75 in - East 8.1 mph - N/A   Unknown
10:00 PM -4.4 °F -21.6 °F -8.3 °F 83% 29.76 in - East 10.4 mph - N/A   Unknown
11:00 PM -6.0 °F -22.6 °F -10.1 °F 82% 29.76 in - ENE 9.2 mph - N/A   Unknown